Regional Weather Roundup
Issued by NWS

Home | Current Version | Previous Version | Text Only | Print | Product List | Glossary Off
Versions: 1 2 3 4 5 6 7 8 9 10 11 12 13 14 15 16 17 18 19 20 21 22 23 24 25 26 27 28 29 30 31 32 33 34 35 36 37 38 39 40 41 42 43 44 45 46 47 48 49

000
ASUS45 KCYS 020110
RWRWY

WYOMING REGIONAL WEATHER ROUNDUP
NATIONAL WEATHER SERVICE CHEYENNE WY
700 PM MDT WED OCT 01 2014

NOTE:  "FAIR" INDICATES FEW OR NO CLOUDS BELOW 12,000 FEET
WITH NO SIGNIFICANT WEATHER AND/OR OBSTRUCTIONS TO VISIBILITY.

WYZ001-020200-
YELLOWSTONE NATIONAL PARK

CITY           SKY/WX    TMP DP  RH WIND       PRES   REMARKS
LK YELLOWSTONE   N/A     33  30  88 CALM      30.12R
W YELLOWSTONE  NOT AVBL

$$
WYZ002>013-054>058-071-098>099-020200-
NORTHERN WYOMING

CITY           SKY/WX    TMP DP  RH WIND       PRES   REMARKS
JACKSON        CLOUDY    43  27  52 CALM      30.11R
CODY           PTCLDY    43  37  81 N3        30.02R
GREYBULL       MOCLDY    53  36  52 W5        29.98R
WORLAND        CLOUDY    50  39  66 SW9       30.00R
SHERIDAN       PTCLDY    46  34  62 NW6       29.98R
BUFFALO        MOCLDY    46  33  60 NW7       30.01R
GILLETTE       MOCLDY    44  38  79 W6        29.97R
HULETT         FAIR      48  36  61 W3        29.97
NEWCASTLE      FAIR      46  37  71 NW3       29.99

$$
WYZ014>020-022>026-101>103-020200-
CENTRAL WYOMING

CITY           SKY/WX    TMP DP  RH WIND       PRES   REMARKS
BIG PINEY      PTCLDY    40  24  53 NW16      30.11R WCI  31
PINEDALE       PTCLDY    37  28  70 NW16G25   30.10R WCI  28
DUBOIS         MOCLDY    37  25  60 NW16      30.08R WCI  28
LANDER         MOCLDY    39  37  92 SE7       30.05S WCI  34
RIVERTON       MOCLDY    40  36  86 SW9       30.06S WCI  34
CASPER         CLOUDY    42  37  82 CALM      30.06R
DOUGLAS        LGT RAIN  43  40  89 NW6       30.05R

$$
WYZ021-027>030-104>119-020200-
SOUTHERN WYOMING

CITY           SKY/WX    TMP DP  RH WIND       PRES   REMARKS
EVANSTON       PTCLDY    41  27  57 NW8       30.17R
KEMMERER       PTCLDY    36  30  80 W12G18    30.15R WCI  27
FORT BRIDGER     N/A     39  35  85 W10       30.17R WCI  32
ROCK SPRINGS   LGT RAIN  38  31  76 W28G35    30.11R WCI  26
DIXON          CLOUDY    40  36  87 E3        30.10R
RAWLINS        PTCLDY    40  34  79 N18       30.04R WCI  31
SARATOGA       CLOUDY    41  32  70 CALM      30.05S
LARAMIE        CLOUDY    40  35  83 W8        30.03R WCI  34
CHEYENNE       MOCLDY    41  35  79 N6        30.00R
TORRINGTON     CLOUDY    48  44  86 N5        29.97R
PINE BLUFFS    DRIZZLE   41  39  93 N7        30.00S

$$



USA.gov is the U.S. government's official web portal to all federal, state and local government web resources and services.